Location: *
(51.0333°S, 178.4667°E)
Time: 01:53:58
(UTC+00:00)

Cosmos 389 Rocket - Pass Details

Date: 15 November 2019
Orbit: 444 x 477 km, 81.1° (Epoch: 08 December)

Event Time Altitude Azimuth Distance (km) Brightness Sun altitude
Rises 11:21:52 0° 194° (SSW) 2,496 7.8 -20.2°
Reaches altitude 10° 11:23:57 10° 194° (SSW) 1,615 6.4 -20.2°
Maximum altitude 11:27:29 81° 280° (W) 471 2.3 -20.3°
Enters shadow 11:27:36 79° 316° (NW) 473 2.3 -20.3°
